SCP
0 0 0 0 0 0 0 0 0 0 0 0 0 -0 0 0 0 0 0 0 0 0 0 0 0 0 0 0 0 0 0 0 0 0 0 0 0 0 0 0 0 0 0 0
0 0 0 0 0 0 0 0 0 0 0 0 0 -0 -0 -0 -0 0 -0 0 0 0 0 0 0 0 0 0 0 0 0 0 0 0 0 0 0 0 0 0 0 0 0 0
0 0 0 0 0 0 0 0 0 0 0 0 0 0 0 0 0 0 0 0 0 0 0 0 0 0 0 0 0 0 0 0 0 0 0 0 0 0 0 0 0 0 0 0
0 0 0 0 0 0 0 0 0 0 0 0 0 0 0 -0 -0 0 0 0 0 0 0 0 0 0 0 0 0 0 0 0 0 0 0 0 0 0 0 0 0 0 0 0
0 0 0 0 0 0 0 0 0 0 0 0 0 0 0 0 0 0 0 0 0 0 0 0 0 0 0 0 0 0 0 -0 -0 -0 -0 -0 0 0 0 0 0 0 0 0
0 0 0 0 0 0 0 0 0 0 0 0 0 0 0 0 0 0 0 0 0 0 0 0 0 0 0 0 0 0 0 0 0 -0 -0 -0 -0 0 0 0 0 0 0 0
0 0 0 0 0 0 0 0 0 0 0 0 0 0 0 0 0 0 0 0 0 0 0 0 0 0 0 0 -0 -0 -0 0 0 0 -0 -0 -0 -0 -0 0 0 0 0 0
0 0 0 0 0 0 0 0 0 0 0 0 0 0 0 0 0 0 0 0 0 0 0 0 0 -0 -0 -0 -0 -0 -0 -0 -0 0 0 0 0 0 -0 0 0 0 0 0
0 0 0 0 0 0 0 0 0 0 0 0 0 0 0 0 0 0 0 0 0 0 0 -0 -0 -0 -0 0 0 0 0 0 0 0 0 0 -0 -0 0 0 0 0 0 0
0 0 0 0 0 0 0 0 0 0 0 0 0 0 0 0 0 0 0 0 0 0 0 0 0 0 0 0 0 0 0 0 -0 -0 -0 -0 -0 -0 -0 -0 0 0 0 0
0 0 0 0 0 0 0 0 0 0 0 0 0 0 0 0 0 0 0 0 0 0 0 0 0 0 0 0 0 0 0 0 0 -0 -0 -0 -0 0 0 -0 0 0 0 0
0 0 0 0 0 0 0 0 0 0 0 0 0 0 0 0 0 0 0 0 -0 -0 -0 0 0 0 0 0 0 0 0 0 0 0 0 -0 -0 -0 -0 -0 -0 0 0 0
0 0 0 0 0 0 0 0 0 0 0 0 0 0 0 0 0 -0 -0 -0 -0 -0 0 0 0 0 0 0 0 0 0 0 0 0 0 0 -0 -0 -0 -0 -0 -0 -0 0
0 0 0 0 0 0 0 0 0 0 0 0 0 0 0 0 -0 -0 0 -0 -0 -0 0 0 0 0 0 0 0 0 0 0 0 0 0 0 0 -0 -0 -0 -0 -0 -0 -0
0 0 0 0 0 0 0 0 0 0 0 0 0 0 0 -0 -0 0 0 0 0 0 0 0 0 -0 -0 0 0 0 0 0 0 -0 -0 0 -0 0 0 -0 -0 -0 -0 -0
0 0 0 0 0 0 0 0 0 0 0 0 0 0 0 0 0 0 0 0 0 -0 0 -0 -0 -0 -0 -0 -0 -0 -0 -0 -0 -0 -0 -0 -0 -0 0 0 0 -0 -0 -0
0 0 0 0 0 0 0 0 0 0 0 0 0 0 0 0 0 0 0 0 0 0 0 0 0 -0 -0 -0 -0 -0 -0 0 0 0 0 0 -0 -0 0 0 0 0 0 -0
0 0 0 0 0 0 0 0 0 0 0 0 0 0 0 0 0 0 0 0 0 0 0 0 0 -0 -0 -0 -0 -0 0 0 0 0 0 0 0 0 0 0 0 0 0 0
0 0 0 0 0 0 0 0 0 0 0 0 0 0 0 0 0 0 0 -0 -0 -0 -0 0 0 0 0 0 0 0 0 0 0 0 0 0 0 0 0 0 0 0 0 0
0 0 0 0 0 0 0 0 0 0 0 0 0 0 0 0 0 0 0 0 0 0 0 0 0 0 0 0 0 0 0 0 0 0 0 0 0 0 0 0 0 0 -0 0
0 0 0 0 0 0 0 0 0 0 0 0 0 0 0 0 0 0 0 0 0 0 0 0 0 0 0 0 0 0 0 0 0 0 0 0 0 0 0 0 0 -0 -0 -0
0 0 0 0 0 0 0 0 0 0 0 0 0 0 0 0 0 0 0 0 0 0 0 0 0 0 0 0 0 0 0 0 0 0 0 0 0 0 0 0 0 0 -0 -0
0 0 0 0 0 0 0 0 0 0 0 0 0 0 0 0 0 0 0 0 0 0 0 0 0 0 0 0 0 0 0 0 0 0 0 0 0 0 0 0 0 0 0 -0
0 0 0 0 0 0 0 0 0 0 0 0 0 0 0 0 0 0 0 0 0 0 0 0 0 0 0 0 0 0 0 0 0 0 0 0 0 0 0 0 0 0 0 0
0 0 0 0 0 0 0 0 0 0 0 0 0 0 0 0 0 0 0 0 0 0 0 0 0 0 0 0 0 0 0 0 0 0 0 0 0 0 0 0 0 0 0 0
0 0 0 0 0 0 0 0 0 0 0 0 0 0 0 0 0 0 0 0 0 0 0 0 0 0 0 0 0 0 0 0 0 0 0 0 0 0 0 0 0 0 0 0
Wind_Speed_500mb
9 17 24 39 40 42 27 34 42 38 32 31 45 48 37 57 64 72 65 58 42 36 30 29 28 17 15 14 14 18 26 31 44 57 73 85 98 102 108 109 107 105 102 101
7 25 31 22 15 20 33 43 44 40 28 12 38 51 48 47 48 55 53 41 31 30 23 25 45 58 52 45 38 28 23 27 35 44 55 68 78 89 99 105 112 112 110 108
36 22 3 23 28 28 37 31 38 43 31 27 26 29 7 17 21 31 29 24 18 18 25 42 50 53 50 47 45 41 35 29 30 35 43 53 65 79 86 93 107 117 116 115
21 11 14 7 17 30 39 30 32 29 16 16 14 20 27 32 32 18 26 38 38 39 40 40 44 55 53 50 46 46 43 42 33 31 42 53 63 69 76 84 90 99 111 118
8 5 6 14 20 16 15 8 10 8 16 17 10 12 8 8 8 13 32 33 45 41 45 50 47 47 46 47 48 47 47 48 46 42 32 40 55 62 60 59 78 84 91 97
26 3 8 9 7 12 2 7 12 4 7 18 24 18 3 2 9 8 23 38 55 54 49 49 49 53 58 51 46 46 45 49 46 42 37 31 38 46 52 63 72 81 81 85
15 12 6 7 9 5 10 14 10 11 10 16 13 5 14 18 9 27 36 40 40 42 49 60 65 68 66 67 64 57 52 48 44 41 41 37 37 38 43 49 59 66 76 82
7 14 12 12 14 21 13 12 8 11 16 31 11 16 11 3 39 45 46 46 51 56 58 59 58 57 65 67 65 64 66 57 54 53 46 42 41 38 38 44 50 59 69 75
9 18 5 11 7 10 11 16 24 18 19 15 20 29 19 19 22 27 32 35 43 43 46 50 58 61 65 67 68 70 68 65 61 56 56 55 51 45 45 43 44 49 63 70
4 20 13 5 2 7 9 3 6 7 8 20 29 23 19 20 6 14 22 31 35 38 42 44 48 55 60 61 62 62 63 66 69 67 62 57 55 55 52 50 51 53 52 59
8 9 27 1 16 23 5 9 5 4 8 11 15 14 10 15 10 11 12 21 29 33 38 43 46 49 49 52 54 56 59 60 62 68 70 66 61 56 54 54 53 55 56 60
9 5 12 26 34 31 27 34 31 22 19 17 21 30 4 21 19 13 10 13 17 21 26 30 32 36 39 42 48 50 50 55 58 60 63 67 69 68 64 61 59 56 56 59
5 7 10 12 9 6 5 8 9 8 5 29 32 30 6 25 18 11 8 10 11 11 21 29 30 32 35 37 41 47 53 54 55 58 60 65 67 67 68 67 68 64 62 56
4 6 15 24 33 16 17 26 10 3 8 14 18 25 37 44 19 8 8 13 13 13 21 26 30 31 33 39 44 49 54 58 62 66 66 65 67 69 72 69 65 70 69 64
4 19 25 31 33 22 22 20 29 33 29 16 29 44 50 20 18 13 16 23 22 14 21 30 34 32 32 42 48 50 50 52 57 62 66 69 71 73 74 74 74 65 66 72
1 7 4 11 16 27 32 37 43 43 43 48 52 53 11 9 24 33 35 38 36 24 29 34 35 37 37 41 49 51 53 55 57 62 66 70 73 74 77 80 77 78 73 65
6 7 8 30 27 23 21 37 40 41 46 38 34 12 4 6 19 37 49 44 48 40 39 45 47 45 41 46 53 55 57 57 60 65 69 75 80 83 82 83 84 80 82 81
24 18 12 17 6 29 18 8 14 19 3 10 9 10 4 11 33 44 43 46 57 51 48 51 54 55 51 53 56 62 68 70 70 70 69 68 73 79 86 90 92 92 90 86
38 24 11 10 19 23 34 14 9 9 11 20 14 14 8 28 38 48 41 46 53 53 55 54 61 76 84 78 73 73 85 86 84 80 80 80 81 83 86 90 96 99 100 99
13 25 16 7 11 17 8 9 9 10 18 20 20 15 29 28 23 29 52 48 52 56 62 79 82 88 91 90 92 96 88 76 75 84 92 92 90 92 96 98 100 102 106 107
6 7 29 23 19 15 10 10 11 11 10 17 21 34 38 27 40 59 55 54 60 64 66 72 77 86 92 96 92 97 98 97 78 76 90 102 106 109 108 107 107 111 111 114
11 10 9 3 7 21 9 14 12 6 30 40 44 50 47 50 49 53 57 57 52 51 62 80 84 94 102 101 89 87 93 93 89 83 86 97 109 121 123 121 120 115 117 115
12 18 10 17 12 4 15 23 46 63 62 61 55 54 50 49 52 50 46 42 47 61 74 83 83 95 107 102 82 85 104 86 89 104 114 108 104 110 114 115 121 119 114 114
23 38 19 23 34 44 63 67 66 66 54 59 54 51 50 35 37 54 58 60 61 63 60 70 81 93 106 105 100 94 98 98 100 107 110 103 95 94 89 89 93 93 103 100
30 8 18 27 42 53 63 65 67 62 54 51 45 40 44 44 46 49 57 62 61 59 63 64 83 96 105 106 107 100 96 100 104 103 96 90 85 84 84 79 79 79 86 80
41 36 23 29 58 46 58 60 49 41 38 42 44 43 39 42 48 52 59 60 65 74 83 92 88 87 95 95 97 97 93 84 86 88 84 80 80 81 80 81 87 82 80 81
Wind_Direction_500mb
181 214 212 225 228 248 289 274 276 279 284 293 286 294 297 287 278 275 282 284 296 291 315 340 352 6 353 334 308 281 270 263 255 255 252 249 249 248 246 245 245 242 240 238
180 237 238 260 283 268 267 273 278 280 275 287 294 298 293 273 276 273 280 293 295 310 352 28 69 56 40 39 30 10 341 305 287 273 265 259 258 257 255 250 246 243 241 240
244 262 251 217 242 262 254 262 274 283 305 277 298 287 285 306 286 276 297 308 343 23 66 82 47 33 43 45 39 31 19 1 334 299 277 267 258 259 256 254 254 250 245 242
256 292 250 228 245 243 275 265 268 278 293 286 4 291 303 282 285 353 31 44 57 72 84 53 36 36 38 37 26 21 15 12 359 332 299 280 273 268 267 261 260 257 251 245
273 176 172 214 237 210 264 8 292 278 270 300 242 261 320 281 310 70 61 55 46 43 44 29 28 38 35 32 22 18 14 12 8 356 336 300 288 283 275 271 267 263 262 257
269 294 245 247 193 198 162 265 266 232 252 261 258 220 43 138 64 64 63 54 35 35 34 36 29 30 32 32 27 21 17 10 4 2 360 341 312 299 286 278 275 275 270 265
310 250 241 230 245 165 230 282 302 262 219 268 109 236 285 272 346 54 69 61 48 42 32 24 21 20 17 16 15 17 20 18 12 4 4 356 346 326 307 287 280 277 275 271
256 290 191 182 233 247 178 203 215 269 279 290 347 259 251 187 73 53 46 37 34 29 26 19 15 12 11 10 7 6 6 8 8 5 1 351 343 332 319 307 294 285 280 280
236 261 264 224 222 201 158 205 229 248 268 274 253 254 231 98 75 59 42 32 27 23 14 5 359 355 352 351 354 355 353 351 351 352 349 350 348 336 319 306 298 295 289 285
258 284 218 282 223 250 249 101 192 219 244 259 268 259 257 184 266 53 24 22 16 14 14 11 4 358 355 350 342 339 341 343 346 347 349 348 345 342 333 317 304 298 293 288
251 234 271 320 213 235 171 199 186 186 195 249 267 249 93 120 58 21 37 23 21 18 13 6 3 1 359 352 350 348 342 339 335 338 341 343 344 341 343 339 323 307 296 289
206 198 248 239 270 257 254 245 244 244 222 218 244 265 22 117 84 61 56 30 4 6 7 5 357 355 354 352 347 347 348 347 345 344 341 340 337 339 338 338 338 325 307 295
57 251 257 268 194 76 264 305 307 304 320 246 262 261 11 308 344 50 31 352 349 357 7 3 354 350 353 344 341 341 343 343 341 341 342 342 340 337 335 336 337 335 328 311
29 279 257 267 281 336 266 261 239 250 256 283 252 286 296 304 345 53 343 332 298 320 350 349 346 340 341 342 338 337 338 340 339 337 337 335 334 336 336 332 330 333 331 329
230 260 266 271 281 292 261 257 268 268 266 254 280 280 280 324 326 330 318 336 332 309 328 332 331 331 328 330 330 329 329 330 330 332 333 334 331 329 328 329 329 325 326 325
310 266 243 268 254 264 281 273 263 266 265 263 265 270 358 327 320 323 330 336 333 309 318 326 321 315 315 317 322 319 319 322 324 325 327 327 327 329 329 327 326 326 323 321
252 248 270 268 287 314 277 252 264 269 270 279 275 305 123 357 332 321 317 319 319 306 314 326 327 320 305 305 311 315 314 311 311 314 315 318 320 321 324 327 327 326 323 320
242 231 246 273 330 254 282 336 263 270 339 168 136 156 186 317 317 307 304 297 302 293 297 312 318 318 309 303 303 309 311 308 307 306 305 306 306 310 314 319 322 323 323 321
233 248 247 248 243 296 297 238 221 247 276 205 188 192 241 304 304 293 302 292 290 289 285 296 308 315 314 309 310 308 310 308 306 304 304 306 305 306 307 309 312 314 316 315
215 227 215 164 239 263 310 147 116 139 278 190 192 225 296 306 293 295 310 307 294 294 288 292 299 305 308 307 309 309 307 302 299 303 303 302 300 300 301 302 303 305 307 308
147 200 220 227 249 271 259 158 131 253 301 159 231 271 284 287 280 290 298 302 298 289 290 292 299 302 303 305 308 305 304 302 301 295 298 298 297 298 298 297 296 298 299 300
215 202 198 161 244 267 177 129 213 256 304 301 297 294 295 294 291 291 293 295 293 285 291 296 302 302 304 305 305 301 298 302 300 295 292 293 295 296 294 294 292 291 292 293
252 219 242 216 230 242 190 254 274 284 289 292 292 292 296 292 293 295 294 296 294 296 302 304 301 301 302 303 300 297 299 299 296 295 293 293 292 292 292 292 291 289 287 287
257 254 246 265 254 260 269 271 276 276 277 282 284 285 289 288 293 296 299 302 303 303 302 300 299 300 301 302 300 296 296 295 293 291 291 292 291 290 287 286 286 286 285 282
247 232 244 262 266 272 267 268 265 273 278 273 273 282 291 297 300 302 301 304 306 304 304 302 301 303 303 306 305 303 300 300 297 296 294 294 292 290 289 284 282 280 278 272
245 245 252 257 266 260 269 277 280 272 261 268 280 287 294 300 301 304 305 307 307 309 310 313 311 308 308 309 308 309 310 310 305 298 298 296 293 291 289 287 286 283 276 274
Wind_Speed_850mb
9 17 24 39 40 42 27 34 42 38 32 31 45 48 37 57 64 72 65 58 42 36 30 29 28 17 15 14 14 18 26 31 44 57 73 85 98 102 108 109 107 105 102 101
7 25 31 22 15 20 33 43 44 40 28 12 38 51 48 47 48 55 53 41 31 30 23 25 45 58 52 45 38 28 23 27 35 44 55 68 78 89 99 105 112 112 110 108
36 22 3 23 28 28 37 31 38 43 31 27 26 29 7 17 21 31 29 24 18 18 25 42 50 53 50 47 45 41 35 29 30 35 43 53 65 79 86 93 107 117 116 115
21 11 14 7 17 30 39 30 32 29 16 16 14 20 27 32 32 18 26 38 38 39 40 40 44 55 53 50 46 46 43 42 33 31 42 53 63 69 76 84 90 99 111 118
8 5 6 14 20 16 15 8 10 8 16 17 10 12 8 8 8 13 32 33 45 41 45 50 47 47 46 47 48 47 47 48 46 42 32 40 55 62 60 59 78 84 91 97
26 3 8 9 7 12 2 7 12 4 7 18 24 18 3 2 9 8 23 38 55 54 49 49 49 53 58 51 46 46 45 49 46 42 37 31 38 46 52 63 72 81 81 85
15 12 6 7 9 5 10 14 10 11 10 16 13 5 14 18 9 27 36 40 40 42 49 60 65 68 66 67 64 57 52 48 44 41 41 37 37 38 43 49 59 66 76 82
7 14 12 12 14 21 13 12 8 11 16 31 11 16 11 3 39 45 46 46 51 56 58 59 58 57 65 67 65 64 66 57 54 53 46 42 41 38 38 44 50 59 69 75
9 18 5 11 7 10 11 16 24 18 19 15 20 29 19 19 22 27 32 35 43 43 46 50 58 61 65 67 68 70 68 65 61 56 56 55 51 45 45 43 44 49 63 70
4 20 13 5 2 7 9 3 6 7 8 20 29 23 19 20 6 14 22 31 35 38 42 44 48 55 60 61 62 62 63 66 69 67 62 57 55 55 52 50 51 53 52 59
8 9 27 1 16 23 5 9 5 4 8 11 15 14 10 15 10 11 12 21 29 33 38 43 46 49 49 52 54 56 59 60 62 68 70 66 61 56 54 54 53 55 56 60
9 5 12 26 34 31 27 34 31 22 19 17 21 30 4 21 19 13 10 13 17 21 26 30 32 36 39 42 48 50 50 55 58 60 63 67 69 68 64 61 59 56 56 59
5 7 10 12 9 6 5 8 9 8 5 29 32 30 6 25 18 11 8 10 11 11 21 29 30 32 35 37 41 47 53 54 55 58 60 65 67 67 68 67 68 64 62 56
4 6 15 24 33 16 17 26 10 3 8 14 18 25 37 44 19 8 8 13 13 13 21 26 30 31 33 39 44 49 54 58 62 66 66 65 67 69 72 69 65 70 69 64
4 19 25 31 33 22 22 20 29 33 29 16 29 44 50 20 18 13 16 23 22 14 21 30 34 32 32 42 48 50 50 52 57 62 66 69 71 73 74 74 74 65 66 72
1 7 4 11 16 27 32 37 43 43 43 48 52 53 11 9 24 33 35 38 36 24 29 34 35 37 37 41 49 51 53 55 57 62 66 70 73 74 77 80 77 78 73 65
6 7 8 30 27 23 21 37 40 41 46 38 34 12 4 6 19 37 49 44 48 40 39 45 47 45 41 46 53 55 57 57 60 65 69 75 80 83 82 83 84 80 82 81
24 18 12 17 6 29 18 8 14 19 3 10 9 10 4 11 33 44 43 46 57 51 48 51 54 55 51 53 56 62 68 70 70 70 69 68 73 79 86 90 92 92 90 86
38 24 11 10 19 23 34 14 9 9 11 20 14 14 8 28 38 48 41 46 53 53 55 54 61 76 84 78 73 73 85 86 84 80 80 80 81 83 86 90 96 99 100 99
13 25 16 7 11 17 8 9 9 10 18 20 20 15 29 28 23 29 52 48 52 56 62 79 82 88 91 90 92 96 88 76 75 84 92 92 90 92 96 98 100 102 106 107
6 7 29 23 19 15 10 10 11 11 10 17 21 34 38 27 40 59 55 54 60 64 66 72 77 86 92 96 92 97 98 97 78 76 90 102 106 109 108 107 107 111 111 114
11 10 9 3 7 21 9 14 12 6 30 40 44 50 47 50 49 53 57 57 52 51 62 80 84 94 102 101 89 87 93 93 89 83 86 97 109 121 123 121 120 115 117 115
12 18 10 17 12 4 15 23 46 63 62 61 55 54 50 49 52 50 46 42 47 61 74 83 83 95 107 102 82 85 104 86 89 104 114 108 104 110 114 115 121 119 114 114
23 38 19 23 34 44 63 67 66 66 54 59 54 51 50 35 37 54 58 60 61 63 60 70 81 93 106 105 100 94 98 98 100 107 110 103 95 94 89 89 93 93 103 100
30 8 18 27 42 53 63 65 67 62 54 51 45 40 44 44 46 49 57 62 61 59 63 64 83 96 105 106 107 100 96 100 104 103 96 90 85 84 84 79 79 79 86 80
41 36 23 29 58 46 58 60 49 41 38 42 44 43 39 42 48 52 59 60 65 74 83 92 88 87 95 95 97 97 93 84 86 88 84 80 80 81 80 81 87 82 80 81
Wind_Direction_850mb
181 214 212 225 228 248 289 274 276 279 284 293 286 294 297 287 278 275 282 284 296 291 315 340 352 6 353 334 308 281 270 263 255 255 252 249 249 248 246 245 245 242 240 238
180 237 238 260 283 268 267 273 278 280 275 287 294 298 293 273 276 273 280 293 295 310 352 28 69 56 40 39 30 10 341 305 287 273 265 259 258 257 255 250 246 243 241 240
244 262 251 217 242 262 254 262 274 283 305 277 298 287 285 306 286 276 297 308 343 23 66 82 47 33 43 45 39 31 19 1 334 299 277 267 258 259 256 254 254 250 245 242
256 292 250 228 245 243 275 265 268 278 293 286 4 291 303 282 285 353 31 44 57 72 84 53 36 36 38 37 26 21 15 12 359 332 299 280 273 268 267 261 260 257 251 245
273 176 172 214 237 210 264 8 292 278 270 300 242 261 320 281 310 70 61 55 46 43 44 29 28 38 35 32 22 18 14 12 8 356 336 300 288 283 275 271 267 263 262 257
269 294 245 247 193 198 162 265 266 232 252 261 258 220 43 138 64 64 63 54 35 35 34 36 29 30 32 32 27 21 17 10 4 2 360 341 312 299 286 278 275 275 270 265
310 250 241 230 245 165 230 282 302 262 219 268 109 236 285 272 346 54 69 61 48 42 32 24 21 20 17 16 15 17 20 18 12 4 4 356 346 326 307 287 280 277 275 271
256 290 191 182 233 247 178 203 215 269 279 290 347 259 251 187 73 53 46 37 34 29 26 19 15 12 11 10 7 6 6 8 8 5 1 351 343 332 319 307 294 285 280 280
236 261 264 224 222 201 158 205 229 248 268 274 253 254 231 98 75 59 42 32 27 23 14 5 359 355 352 351 354 355 353 351 351 352 349 350 348 336 319 306 298 295 289 285
258 284 218 282 223 250 249 101 192 219 244 259 268 259 257 184 266 53 24 22 16 14 14 11 4 358 355 350 342 339 341 343 346 347 349 348 345 342 333 317 304 298 293 288
251 234 271 320 213 235 171 199 186 186 195 249 267 249 93 120 58 21 37 23 21 18 13 6 3 1 359 352 350 348 342 339 335 338 341 343 344 341 343 339 323 307 296 289
206 198 248 239 270 257 254 245 244 244 222 218 244 265 22 117 84 61 56 30 4 6 7 5 357 355 354 352 347 347 348 347 345 344 341 340 337 339 338 338 338 325 307 295
57 251 257 268 194 76 264 305 307 304 320 246 262 261 11 308 344 50 31 352 349 357 7 3 354 350 353 344 341 341 343 343 341 341 342 342 340 337 335 336 337 335 328 311
29 279 257 267 281 336 266 261 239 250 256 283 252 286 296 304 345 53 343 332 298 320 350 349 346 340 341 342 338 337 338 340 339 337 337 335 334 336 336 332 330 333 331 329
230 260 266 271 281 292 261 257 268 268 266 254 280 280 280 324 326 330 318 336 332 309 328 332 331 331 328 330 330 329 329 330 330 332 333 334 331 329 328 329 329 325 326 325
310 266 243 268 254 264 281 273 263 266 265 263 265 270 358 327 320 323 330 336 333 309 318 326 321 315 315 317 322 319 319 322 324 325 327 327 327 329 329 327 326 326 323 321
252 248 270 268 287 314 277 252 264 269 270 279 275 305 123 357 332 321 317 319 319 306 314 326 327 320 305 305 311 315 314 311 311 314 315 318 320 321 324 327 327 326 323 320
242 231 246 273 330 254 282 336 263 270 339 168 136 156 186 317 317 307 304 297 302 293 297 312 318 318 309 303 303 309 311 308 307 306 305 306 306 310 314 319 322 323 323 321
233 248 247 248 243 296 297 238 221 247 276 205 188 192 241 304 304 293 302 292 290 289 285 296 308 315 314 309 310 308 310 308 306 304 304 306 305 306 307 309 312 314 316 315
215 227 215 164 239 263 310 147 116 139 278 190 192 225 296 306 293 295 310 307 294 294 288 292 299 305 308 307 309 309 307 302 299 303 303 302 300 300 301 302 303 305 307 308
147 200 220 227 249 271 259 158 131 253 301 159 231 271 284 287 280 290 298 302 298 289 290 292 299 302 303 305 308 305 304 302 301 295 298 298 297 298 298 297 296 298 299 300
215 202 198 161 244 267 177 129 213 256 304 301 297 294 295 294 291 291 293 295 293 285 291 296 302 302 304 305 305 301 298 302 300 295 292 293 295 296 294 294 292 291 292 293
252 219 242 216 230 242 190 254 274 284 289 292 292 292 296 292 293 295 294 296 294 296 302 304 301 301 302 303 300 297 299 299 296 295 293 293 292 292 292 292 291 289 287 287
257 254 246 265 254 260 269 271 276 276 277 282 284 285 289 288 293 296 299 302 303 303 302 300 299 300 301 302 300 296 296 295 293 291 291 292 291 290 287 286 286 286 285 282
247 232 244 262 266 272 267 268 265 273 278 273 273 282 291 297 300 302 301 304 306 304 304 302 301 303 303 306 305 303 300 300 297 296 294 294 292 290 289 284 282 280 278 272
245 245 252 257 266 260 269 277 280 272 261 268 280 287 294 300 301 304 305 307 307 309 310 313 311 308 308 309 308 309 310 310 305 298 298 296 293 291 289 287 286 283 276 274